Location: Newark
(41.9364°N, 2.8061°E)
Time: 18:15:00
(UTC+00:00)

A-11 Canister half - Visible Passes

Search period start: 28 February 2020 00:00
Search period end: 09 March 2020 00:00
Orbit: 1524 x 1684 km, 47.3° (Epoch: 27 February)

Date Brightness Start Highest point End Pass type
(mag) Time Alt. Az. Time Alt. Az. Time Alt. Az.
29 Feb 11.2 05:44:28 10° S 05:51:42 24° SE 05:58:45 10° E visible
01 Mar 11.2 05:23:07 10° S 05:30:07 23° SE 05:36:58 10° E visible
02 Mar 11.1 05:01:48 10° S 05:08:34 21° SE 05:15:09 10° E visible
03 Mar 11.1 04:40:31 10° SSE 04:46:59 20° SE 04:53:19 10° E visible
04 Mar 11.1 04:19:16 10° SSE 04:25:26 19° SE 04:31:28 10° E visible
05 Mar 11.1 03:58:03 10° SSE 04:03:52 17° SE 04:09:35 10° E visible
06 Mar 11.1 03:36:53 10° SSE 03:42:18 16° SE 03:47:38 10° E visible
06 Mar 9.7 05:36:21 10° SW 05:45:51 57° SE 05:55:03 10° ENE visible
07 Mar 11.1 03:15:46 10° SSE 03:20:45 15° ESE 03:25:39 10° E visible
07 Mar 9.7 05:14:46 10° SW 05:24:14 54° SE 05:33:24 10° ENE visible
08 Mar 11.1 02:54:45 10° SSE 02:59:11 14° ESE 03:03:35 10° E visible
08 Mar 9.7 04:53:11 10° SSW 05:02:37 52° SE 05:11:44 10° ENE visible
